ROMMA est une association bénévole à but non lucratif. Votre soutien est indispensable : ADHERER à ROMMA ou FAIRE un DON

Voiron - (38, Isère)

Voironnais (300 m)   Longitude: 05° 35' E   Latitude: 45° 23' N Station partenaire n°109
 

Détail journalier du     <<     >>

Température Precipitation Humidité Pression Vent Dir Rafale Dir. rafale Ensol.
Heure (°C) (mm) (%) (hPa) (km/h) (km/h) (min)
01:00 15.7067101315N31N0
02:00 14.2067101416N37NE0
03:00 13.9072101410N31NE0
04:00 13.3073101412NNO23NNO0
05:00 13.1073101512NNO24NNO0
06:00 12.6076101511N26N0
07:00 12.607510159N24N0
08:00 12.707410156N19NNE0
09:00 12.707510166N18NNO0
10:00 12.208110166N15NNO0
11:00 12.11.28410176N16NNE0
12:00 12.908210166NNE11NNE0
13:00 14.707410166ENE21E30
14:00 16.5069101611ESE24E0
15:00 17.406610156SE16SE0
16:00 18.306510155SSE16SE60
17:00 20.205810146ENE18E60
18:00 20.505810146NE16ENE60
19:00 20.605810146NE16SE60
20:00 20.405810146ENE16E60
21:00 19.306310135ENE11ENE30
22:00 17.407010142ENE10ESE0
23:00 16.107510143SSE15SE0
minuit 16.207410144SSE18SSE0

Graphique du 06-06-2019

 

Serveur OMMA